SCP
0 0 0 0 0 0 0 0 0 0 0 0 0 0 0 0 0 0 0 0 0 0 0 0 0 0 0 0 0 0 0 0 0 0 0 0 0 0 0 0 0 0 0 0
0 0 0 0 0 0 0 0 0 0 0 0 0 0 0 0 0 0 0 0 0 0 0 0 0 0 0 0 0 0 0 0 0 0 0 0 0 0 0 0 0 0 0 0
0 0 0 0 0 0 0 0 0 0 0 0 0 0 0 0 0 0 0 0 0 0 0 0 0 0 0 0 0 0 0 0 0 0 0 0 0 0 0 0 0 0 0 0
0 0 0 0 0 0 0 0 0 0 0 0 0 0 0 0 0 0 0 0 0 0 0 0 0 0 0 0 0 0 0 0 0 0 0 0 0 0 0 0 0 0 0 0
0 0 0 0 0 0 0 0 0 0 0 0 0 0 0 0 0 0 0 0 0 0 0 0 0 0 0 0 0 0 0 0 0 0 0 0 0 0 0 0 0 0 0 0
0 0 0 0 0 0 0 0 0 0 0 0 0 0 0 0 0 0 0 0 0 0 0 0 0 0 0 0 0 0 0 0 0 0 0 0 0 0 0 0 0 0 0 0
0 0 0 0 0 0 0 0 0 0 0 0 0 0 0 0 0 0 0 0 0 0 0 0 0 0 0 0 0 0 0 0 0 0 0 0 0 0 0 0 0 0 0 0
0 0 0 0 0 0 0 0 0 0 0 0 0 0 0 0 0 0 0 0 0 0 0 0 0 0 0 0 0 0 0 0 0 0 0 0 0 0 0 0 0 0 0 0
0 0 0 0 0 0 0 0 0 0 0 0 0 0 0 0 0 0 0 0 0 0 0 0 0 0 0 0 0 0 0 0 0 0 0 0 0 0 0 0 0 0 0 0
0 0 0 0 0 0 0 0 0 0 0 0 0 0 0 0 0 0 0 0 0 0 0 0 0 0 0 0 0 0 0 0 0 0 0 0 0 0 0 0 0 0 0 0
0 0 0 0 0 0 0 0 0 0 0 0 0 0 0 0 0 0 0 0 0 0 0 0 0 0 0 0 0 0 0 0 0 0 0 0 0 0 0 0 0 0 0 0
0 0 0 0 0 0 0 0 0 0 0 0 0 0 0 0 0 0 0 0 0 0 0 0 0 0 0 0 0 0 0 0 0 0 0 0 0 0 0 0 0 0 0 0
0 0 -0 0 0 0 0 0 0 0 0 0 0 0 0 0 0 0 0 0 0 0 0 0 0 0 0 0 0 0 0 0 0 0 0 0 0 0 0 0 0 0 0 0
0 0 0 0 0 0 0 0 0 0 0 0 0 0 0 0 0 0 0 0 0 0 0 0 0 0 0 0 0 0 0 0 0 0 0 0 0 0 0 0 0 0 0 0
0 0 0 0 0 0 0 0 0 0 0 0 0 0 0 0 0 0 0 0 0 0 0 0 0 0 0 0 0 0 0 0 0 0 0 0 0 0 0 0 0 0 0 0
0 0 0 0 0 0 0 0 0 0 0 0 0 0 0 0 0 0 0 0 0 0 0 0 0 0 0 0 0 0 0 0 0 0 0 0 0 0 0 0 0 0 0 0
0 0 0 0 0 0 0 0 0 0 0 0 0 0 0 0 0 0 0 0 0 0 0 0 0 0 0 0 0 0 0 0 0 0 0 0 0 0 0 0 0 0 0 0
0 0 0 0 0 0 0 0 0 0 0 0 0 0 0 0 0 0 0 0 0 0 0 0 0 0 0 0 0 0 0 0 0 0 0 0 0 0 0 0 0 0 0 0
0 0 0 0 0 0 0 0 0 0 0 0 0 0 0 0 0 0 0 0 0 0 0 0 0 0 0 0 0 0 0 0 0 0 0 0 0 0 0 0 0 0 0 0
-0 0 0 0 0 0 0 0 0 0 0 0 0 0 0 0 0 0 0 0 0 0 0 0 0 0 0 0 0 0 0 0 0 0 0 0 0 0 0 0 0 0 0 0
0 0 0 0 0 0 0 0 0 0 0 0 0 0 0 0 0 0 0 0 0 0 0 0 0 0 0 0 0 0 0 0 0 0 0 0 0 0 0 0 0 0 0 0
0 0 0 0 0 0 0 0 0 0 0 0 0 0 0 0 0 0 0 0 0 0 0 0 0 0 0 0 0 0 0 0 0 0 0 0 0 0 0 0 0 0 0 0
0 0 0 0 0 0 0 0 0 0 0 0 0 0 0 0 0 0 0 0 0 0 0 0 0 0 0 0 0 0 0 0 0 0 0 0 0 0 0 0 0 0 0 0
0 0 0 0 0 0 0 0 0 0 0 0 0 0 0 0 0 0 0 0 0 0 0 0 0 0 0 0 0 0 0 0 0 0 0 0 0 0 0 0 0 0 0 0
0 0 0 0 0 0 0 0 0 0 0 0 0 0 0 0 0 0 0 0 0 0 0 0 0 0 0 0 0 0 0 0 0 0 0 0 0 0 0 0 0 0 0 0
0 0 0 0 0 0 0 0 0 0 0 0 0 0 0 0 0 0 0 0 0 0 0 0 0 0 0 0 0 0 0 0 0 0 0 0 0 0 0 0 0 0 0 0
0 0 0 0 0 0 0 0 0 0 0 0 0 0 0 0 0 0 0 0 0 0 0 0 0 0 0 0 0 0 0 0 0 0 0 0 0 0 0 0 0 0 0 0
Wind_Speed
7 7 5 8 11 12 14 13 12 12 13 14 10 8 8 7 7 6 6 6 6 6 6 6 6 6 6 6 5 5 6 6 6 7 7 7 7 7 7 7 7 7 7 7
6 5 6 10 13 14 15 15 16 16 17 10 7 7 8 8 7 7 6 6 6 6 6 6 6 6 6 6 5 6 6 6 6 7 7 7 7 7 7 7 7 7 7 7
5 4 6 11 12 13 11 11 11 14 11 5 6 7 7 7 7 7 6 6 6 7 6 6 6 6 7 6 6 6 6 6 6 6 7 7 7 7 7 7 7 7 7 7
4 3 10 4 1 6 9 10 12 11 10 8 8 7 7 7 6 6 6 6 6 6 7 6 6 6 6 6 6 6 6 6 6 6 7 7 7 7 7 7 7 7 7 7
4 6 10 6 3 5 7 8 8 10 10 7 5 6 5 3 4 5 6 6 6 6 6 6 6 5 5 6 5 6 6 6 6 7 7 7 7 7 7 7 7 6 6 6
5 7 9 2 2 2 4 7 3 6 7 5 4 6 3 2 4 5 5 4 4 5 5 5 5 5 5 5 5 6 7 7 7 7 7 7 7 7 6 6 6 6 6 6
8 8 9 2 1 4 5 3 1 2 4 4 5 5 6 5 5 4 5 5 5 4 4 4 5 4 5 5 6 7 7 7 7 7 7 7 7 6 6 6 5 5 5 5
7 9 9 3 4 5 3 3 3 4 5 5 6 6 6 6 5 5 5 5 5 4 5 4 4 4 5 6 6 7 7 7 7 7 6 5 6 6 5 5 5 5 5 5
8 7 2 3 4 3 3 4 5 5 5 5 5 6 6 6 5 5 5 5 4 5 5 5 5 5 6 6 6 6 7 7 6 6 6 5 5 5 4 4 3 4 4 4
7 8 7 7 7 7 6 6 6 6 5 5 6 6 6 5 5 5 5 5 5 5 5 6 6 6 6 6 6 6 6 6 5 5 5 5 4 4 3 3 3 4 4 4
8 8 7 7 7 7 6 5 6 5 5 5 6 6 6 5 5 5 5 5 4 5 6 7 7 6 6 6 6 6 6 5 5 5 5 4 4 3 4 3 4 4 4 4
8 6 6 6 4 5 6 6 6 5 5 5 5 6 5 5 4 4 4 4 4 5 6 6 6 7 6 6 5 5 5 5 4 4 4 4 3 3 4 4 5 6 5 4
8 7 7 7 6 5 6 6 5 4 5 5 4 4 4 4 4 4 4 4 5 5 6 6 6 7 6 6 6 5 5 5 4 4 4 4 3 3 4 4 4 4 4 4
8 6 8 7 7 6 6 5 4 4 4 4 4 3 3 4 4 4 5 5 5 5 6 6 6 6 6 6 5 5 5 5 4 3 3 3 3 3 3 3 3 3 4 4
8 8 8 6 5 4 4 4 4 4 4 3 3 3 4 4 5 5 5 5 5 5 5 5 6 6 6 5 5 5 4 3 3 3 3 3 3 3 3 3 3 3 3 3
5 5 6 6 6 5 5 4 5 5 4 4 4 4 4 5 5 5 4 4 4 5 6 6 6 6 5 5 5 4 3 4 4 3 3 3 3 2 2 3 3 3 3 3
5 5 5 6 6 6 6 6 6 5 5 5 5 5 4 4 4 5 4 4 4 5 5 5 6 5 5 4 4 3 3 3 4 3 2 2 2 2 2 2 2 3 3 3
8 7 7 6 6 6 6 6 5 5 5 5 4 4 4 4 5 5 5 5 5 5 5 5 4 4 4 4 3 3 3 2 2 2 2 2 2 2 2 2 2 3 3 3
6 6 6 6 6 6 5 5 5 5 5 4 4 5 5 5 4 5 4 4 5 5 5 4 5 4 4 4 4 2 2 2 2 2 2 2 3 2 2 2 3 3 3 3
5 5 5 5 5 5 5 5 4 4 4 4 4 4 4 4 4 4 4 4 4 4 5 5 4 4 3 3 3 2 2 2 2 2 2 2 2 2 2 2 3 3 3 3
5 5 5 5 5 5 5 5 4 4 4 4 4 4 4 4 4 3 3 4 4 4 4 4 3 3 3 3 4 2 2 2 2 2 2 2 2 2 2 2 3 3 3 3
5 5 5 5 5 5 4 4 4 4 4 4 4 4 4 4 4 4 4 4 4 4 3 3 2 3 4 4 2 2 2 2 2 2 2 2 2 2 2 3 3 3 3 3
5 5 5 5 5 4 4 3 4 4 4 4 4 4 4 4 3 3 3 3 3 4 3 2 3 4 4 2 1 1 2 2 2 2 2 2 2 2 2 3 3 3 3 3
5 5 4 4 3 3 4 4 3 3 3 4 4 4 4 3 3 3 3 4 4 4 3 3 4 4 3 2 1 1 2 2 2 2 2 2 2 2 2 2 3 3 3 4
4 4 4 4 4 4 4 3 2 2 3 2 3 3 3 3 3 3 3 3 4 3 2 3 4 3 2 1 1 1 2 2 2 2 2 2 2 2 2 3 3 3 3 3
4 4 4 4 4 3 3 3 3 3 2 2 2 2 2 2 2 2 2 2 3 3 2 2 2 2 1 1 1 2 2 2 2 2 2 2 3 3 3 3 4 3 3 3
3 3 2 3 3 3 3 3 3 3 3 3 3 3 2 2 2 2 2 2 2 2 2 2 1 1 1 1 1 2 1 2 2 2 2 2 2 3 3 3 3 3 3 3
Wind_Direction
264 272 261 250 237 217 220 232 244 257 263 272 281 280 279 279 285 288 295 301 305 306 308 307 305 303 302 301 303 304 302 301 300 302 302 301 299 295 290 285 281 277 274 271
264 262 262 263 251 235 235 238 246 263 270 277 284 280 273 273 276 282 289 295 301 301 304 304 302 302 302 300 301 299 295 296 300 299 299 298 297 293 289 288 286 282 275 271
259 289 285 259 237 220 222 224 227 242 257 284 282 275 274 276 275 276 281 289 295 297 298 299 299 298 295 294 296 294 293 294 295 295 296 297 296 292 290 289 287 282 280 275
271 273 247 250 145 217 230 241 232 249 267 273 277 284 275 266 266 274 284 293 297 300 303 305 303 299 295 291 291 291 290 291 293 293 292 293 291 291 292 288 282 279 278 278
231 253 269 270 217 202 223 256 232 240 257 270 293 287 264 253 268 279 288 296 295 297 302 303 305 302 298 295 295 293 292 292 293 291 290 289 289 290 291 287 281 279 281 281
217 240 251 263 131 195 224 258 214 228 250 269 275 279 293 333 303 298 302 303 305 309 309 306 307 305 299 297 297 296 296 295 293 290 286 285 287 287 286 283 279 280 279 280
226 243 263 294 156 179 222 286 22 256 265 262 259 285 315 318 311 310 310 311 312 312 308 308 311 307 298 296 295 297 298 295 293 291 288 287 287 285 285 281 277 276 278 278
204 226 248 147 158 208 278 341 304 292 289 276 284 300 304 306 310 315 315 315 315 312 311 314 315 307 297 295 300 301 299 296 296 296 296 293 293 289 288 284 277 276 278 282
211 230 328 182 222 258 288 285 292 294 291 285 286 292 297 303 309 310 310 310 311 308 310 313 313 306 298 302 306 303 301 301 301 302 300 298 298 296 294 289 282 281 282 284
250 260 264 262 264 269 267 272 283 286 283 278 280 284 289 296 304 307 308 309 312 311 310 310 313 309 303 308 308 302 302 304 305 304 306 306 304 300 294 295 289 281 280 283
254 271 281 262 253 263 273 277 281 281 278 278 279 280 282 289 295 301 305 307 307 304 302 306 311 309 312 313 310 305 304 304 305 306 308 307 308 310 304 297 300 290 281 279
250 254 251 269 269 264 267 271 272 277 284 281 273 275 280 284 291 296 299 305 303 302 302 305 309 308 313 314 308 305 304 305 306 309 310 310 313 318 325 310 314 309 305 295
257 268 265 272 270 261 260 266 270 267 271 279 281 274 276 284 291 293 294 296 296 299 301 305 307 308 313 314 309 304 301 303 305 308 311 314 315 315 318 329 339 332 328 326
255 261 264 260 260 261 263 268 271 272 274 274 276 274 273 282 288 290 293 296 299 300 301 304 306 307 313 314 310 306 303 301 304 303 308 310 310 311 313 317 324 331 340 339
251 249 256 266 265 266 265 265 267 274 281 281 275 271 274 278 283 288 296 302 302 300 301 305 305 308 316 312 309 306 305 307 308 309 310 313 313 313 313 312 316 324 331 342
260 254 254 256 257 259 261 261 262 272 277 278 276 274 275 277 282 289 293 297 297 298 302 304 302 308 313 308 307 304 306 319 322 316 317 319 317 316 315 315 319 327 333 336
239 248 249 257 258 260 258 259 262 268 271 270 273 277 277 278 282 288 291 292 288 289 293 294 296 306 307 302 302 304 309 313 322 319 316 315 314 315 316 318 323 328 336 345
236 244 244 247 252 258 259 259 258 261 263 268 276 274 268 266 275 286 295 301 298 297 299 298 304 307 304 304 306 305 305 307 310 314 317 317 317 319 320 321 325 326 333 343
238 242 246 247 248 249 254 255 257 262 265 261 260 264 266 266 271 280 290 293 294 300 310 316 315 312 308 312 317 305 303 307 314 316 317 321 326 326 323 323 325 327 329 333
240 242 244 248 246 243 247 251 253 257 258 253 252 260 267 272 274 275 277 276 279 288 298 303 301 300 307 310 316 304 302 305 310 315 321 324 322 322 322 323 326 328 328 327
240 239 240 243 249 249 246 243 240 247 254 243 240 249 262 272 271 266 267 278 292 298 296 295 297 300 308 306 304 302 305 307 309 308 309 309 309 313 319 323 324 323 321 319
240 238 241 242 245 252 251 243 237 239 244 242 242 245 254 264 265 263 256 264 283 295 296 289 295 302 303 305 300 306 309 308 306 305 304 301 302 308 314 317 317 316 314 314
242 243 243 242 245 255 260 246 234 232 236 239 238 240 248 259 260 259 271 273 278 286 292 289 294 295 303 313 310 310 308 305 304 303 300 299 297 297 299 303 306 306 305 309
243 242 244 242 231 233 244 248 243 242 243 248 244 240 242 255 262 260 266 274 283 289 291 290 293 298 320 328 311 299 295 295 296 297 298 297 298 299 299 296 295 296 300 305
243 240 229 218 221 230 236 238 239 239 240 249 256 255 251 251 254 264 269 263 267 285 292 291 295 305 317 305 301 298 295 286 287 290 290 292 295 298 298 296 294 295 298 298
237 235 233 231 231 230 224 221 228 232 232 247 261 263 262 262 256 256 258 258 260 273 280 281 281 288 293 291 291 290 291 293 297 299 292 292 294 295 295 297 298 300 300 298
237 237 237 242 237 223 219 221 227 232 230 234 252 258 259 259 255 252 249 250 256 265 268 272 276 279 283 283 281 280 280 281 283 284 284 285 287 289 292 295 298 301 302 302